Regional Weather Roundup
Issued by NWS

Home | Current Version | Previous Version | Graphics & Text | Print | Product List | Glossary On
Versions: 1 2 3 4 5 6 7 8 9 10 11 12 13 14 15 16 17 18 19 20 21 22 23 24 25 26 27 28 29 30 31 32 33 34 35 36 37 38 39 40 41 42 43 44 45 46 47 48 49 50
000
ASUS45 KCYS 260710
RWRWY

WYOMING REGIONAL WEATHER ROUNDUP
NATIONAL WEATHER SERVICE CHEYENNE WY
100 AM MDT SAT JUL 26 2014

NOTE:  "FAIR" INDICATES FEW OR NO CLOUDS BELOW 12,000 FEET
WITH NO SIGNIFICANT WEATHER AND/OR OBSTRUCTIONS TO VISIBILITY.

WYZ001-260800-
YELLOWSTONE NATIONAL PARK

CITY           SKY/WX    TMP DP  RH WIND       PRES   REMARKS
LK YELLOWSTONE   N/A     39  30  70 CALM      30.31R
W YELLOWSTONE  NOT AVBL

$$
WYZ002>013-054>058-071-098>099-260800-
NORTHERN WYOMING

CITY           SKY/WX    TMP DP  RH WIND       PRES   REMARKS
JACKSON        CLEAR     45  30  57 N8        30.20R
CODY           NOT AVBL
GREYBULL       CLEAR     74  25  16 NW12      29.98R
WORLAND        CLEAR     62  32  32 SW7       30.01R
SHERIDAN       CLEAR     59  36  42 W6        30.04R
BUFFALO        CLEAR     64  28  25 W12       30.10R
GILLETTE       CLEAR     64  39  39 N5        30.01R
HULETT         FAIR      61  50  67 MISG      30.00
NEWCASTLE      FAIR      70  46  43 N7        29.94

$$
WYZ014>020-022>026-101>103-260800-
CENTRAL WYOMING

CITY           SKY/WX    TMP DP  RH WIND       PRES   REMARKS
BIG PINEY      CLEAR     51  23  33 N8        30.27R
PINEDALE       SUNNY     45  34  65 W6        30.27R
DUBOIS         FAIR      54  23  30 NW14      30.22S
LANDER         CLEAR     64  24  21 S5        30.10R
RIVERTON       CLEAR     62  25  24 NW10      30.10S
CASPER         CLEAR     66  37  34 NW7       30.11R
DOUGLAS        CLEAR     64  47  53 NW9       30.05R

$$
WYZ021-027>030-104>119-260800-
SOUTHERN WYOMING

CITY           SKY/WX    TMP DP  RH WIND       PRES   REMARKS
EVANSTON       PTCLDY    66  31  27 NW3       30.26R
KEMMERER       MOSUNNY   55  30  38 NW8       30.28R
ROCK SPRINGS   PTCLDY    67  23  19 NW8       30.22F
DIXON          FAIR      62  44  52 NE6       30.25S
RAWLINS        MOCLDY    69  41  36 W13       30.22R
SARATOGA       FAIR      61  45  55 SE12      30.24F
LARAMIE        CLEAR     64  42  44 SW13      30.23S
CHEYENNE       PTCLDY    68  47  46 W12       30.13S
TORRINGTON     CLEAR     68  56  65 S5        29.92F
PINE BLUFFS    FAIR      61  54  77 SW5       30.05S

$$



USA.gov is the U.S. government's official web portal to all federal, state and local government web resources and services.